Kosmos-1933

operational
NORAD ID: 18958 Int'l Des: 1988-020 Owner: GRU Country: SU
LEOCIRCULARPOLAR

About Kosmos-1933

Description loading...

Live Position

Loading 3D Globe...

Upcoming Passes

Altitude History

Altitude vs Time

uPlot chart will show altitude changes over time

Two-Line Element Set

1 18958U 88020A 26062.46176500 .00005025 00000-0 24633-3 0 9997
2 18958 82.5095 257.0758 0003378 206.0516 154.0548 15.17915908 49283
Epoch: Mar 3, 2026 • Age: 17 hours

Current Status

Altitude 529.6 km
Velocity 7.60 km/s
Sub-Earth Point -50.30°S, 31.8°E
Launch Date Mar 15, 1988
Age 37.9 years
Type other

Technical Details

Classification Payload
Mass 1750.00 kg
Dry Mass 1750.00 kg
Total Mass 1750.00 kg
Length 3.20 m
Diameter 1.30 m
Span 13.10 m
Shape Cyl + Ant
Manufacturer YUZH
Bus Type Tselina-D
Phase Status In Orbit
Owner/State GRU/SU

Large Constellations

Loading constellations...